This is the latest recevied weather packets stored in our database for station/object IZ5MMH-4. If no packets are shown the sender has not sent any weather packets the latest 10 day(s).
| Time | Temp. | Humidity | Pressure | Rain* | Wind** | Luminosity | Snow |
|---|---|---|---|---|---|---|---|
| 1777742678 | 21.67° C | 51% | 1023.1 hPa | - | - | - | - |
| 1777742078 | 21.67° C | 50% | 1023.1 hPa | - | - | - | - |
| 1777741479 | 21.67° C | 49% | 1023.1 hPa | - | - | - | - |
| 1777740878 | 22.22° C | 48% | 1023.1 hPa | - | - | - | - |
| 1777740278 | 22.22° C | 46% | 1023.4 hPa | - | - | - | - |
| 1777739678 | 22.22° C | 45% | 1023.4 hPa | - | - | - | - |
| 1777739079 | 22.78° C | 42% | 1023.4 hPa | - | - | - | - |
| 1777738478 | 23.33° C | 41% | 1023.5 hPa | - | - | - | - |
| 1777737879 | 23.89° C | 40% | 1023.5 hPa | - | - | - | - |
| 1777737278 | 24.44° C | 38% | 1023.5 hPa | - | - | - | - |
| 1777736679 | 23.89° C | 37% | 1023.7 hPa | - | - | - | - |
| 1777736079 | 23.89° C | 39% | 1023.8 hPa | - | - | - | - |
| 1777735478 | 23.33° C | 40% | 1023.9 hPa | - | - | - | - |
| 1777734879 | 23.33° C | 41% | 1024 hPa | - | - | - | - |
| 1777734279 | 22.78° C | 41% | 1024.1 hPa | - | - | - | - |
| 1777733678 | 22.78° C | 40% | 1024.1 hPa | - | - | - | - |
| 1777733079 | 22.78° C | 41% | 1024.3 hPa | - | - | - | - |
| 1777732478 | 22.78° C | 41% | 1024.3 hPa | - | - | - | - |
| 1777731878 | 22.78° C | 42% | 1024.3 hPa | - | - | - | - |
| 1777731279 | 22.22° C | 43% | 1024.4 hPa | - | - | - | - |
| 1777730678 | 22.78° C | 43% | 1024.5 hPa | - | - | - | - |
| 1777730079 | 22.78° C | 44% | 1024.6 hPa | - | - | - | - |
| 1777729478 | 22.22° C | 43% | 1024.7 hPa | - | - | - | - |
| 1777728879 | 22.22° C | 42% | 1024.9 hPa | - | - | - | - |
| 1777728278 | 22.22° C | 41% | 1025 hPa | - | - | - | - |
* Rain since midnight (hover to see other rain measurements)
** Current wind speed in m/s (hover to see current wind gust speed)